Time,TemperatureF,DewpointF,PressureIn,WindDirection,WindDirectionDegrees,WindSpeedMPH,WindSpeedGustMPH,Humidity,HourlyPrecipIn,Conditions,Clouds,dailyrainin,SoftwareType,DateUTC
2013-02-11 00:05:00,39.1,37.0,30.34,West,266,0.0,0.0,92,0.00,,,0.00,weatherlink.com 1.10,2013-02-11 08:05:00,
2013-02-11 00:20:00,39.1,37.0,30.34,West,266,0.0,0.0,92,0.00,,,0.00,weatherlink.com 1.10,2013-02-11 08:20:00,
2013-02-11 00:35:00,38.8,37.0,30.34,West,266,0.0,0.0,94,0.00,,,0.00,weatherlink.com 1.10,2013-02-11 08:35:00,
2013-02-11 00:50:00,38.8,37.0,30.35,West,266,0.0,0.0,93,0.00,,,0.00,weatherlink.com 1.10,2013-02-11 08:50:00,
2013-02-11 01:05:00,38.8,37.0,30.35,West,268,0.0,0.0,93,0.00,,,0.00,weatherlink.com 1.10,2013-02-11 09:05:00,
2013-02-11 01:20:00,39.0,37.0,30.35,West,269,0.0,0.0,92,0.00,,,0.00,weatherlink.com 1.10,2013-02-11 09:20:00,
2013-02-11 01:35:00,38.9,37.0,30.36,NW,304,0.0,0.0,94,0.00,,,0.00,weatherlink.com 1.10,2013-02-11 09:35:00,
2013-02-11 01:50:00,39.1,37.0,30.36,WNW,302,0.0,0.0,93,0.00,,,0.00,weatherlink.com 1.10,2013-02-11 09:50:00,
2013-02-11 02:05:00,39.0,37.0,30.36,WNW,302,0.0,0.0,93,0.00,,,0.00,weatherlink.com 1.10,2013-02-11 10:05:00,
2013-02-11 02:20:00,38.9,37.0,30.36,WNW,302,0.0,0.0,94,0.00,,,0.00,weatherlink.com 1.10,2013-02-11 10:20:00,
2013-02-11 02:35:00,39.1,38.0,30.36,West,271,0.0,0.0,94,0.00,,,0.00,weatherlink.com 1.10,2013-02-11 10:35:00,
2013-02-11 02:50:00,38.8,37.0,30.36,West,271,0.0,0.0,94,0.00,,,0.00,weatherlink.com 1.10,2013-02-11 10:50:00,
2013-02-11 03:05:00,38.9,37.0,30.35,West,271,0.0,0.0,94,0.00,,,0.00,weatherlink.com 1.10,2013-02-11 11:05:00,
2013-02-11 03:20:00,38.7,37.0,30.35,West,271,0.0,0.0,95,0.00,,,0.00,weatherlink.com 1.10,2013-02-11 11:20:00,
2013-02-11 03:35:00,38.4,37.0,30.35,West,271,0.0,0.0,95,0.00,,,0.00,weatherlink.com 1.10,2013-02-11 11:35:00,
2013-02-11 03:50:00,38.3,37.0,30.35,West,271,0.0,0.0,96,0.00,,,0.00,weatherlink.com 1.10,2013-02-11 11:50:00,
2013-02-11 04:05:00,38.2,37.0,30.35,West,271,0.0,0.0,96,0.00,,,0.00,weatherlink.com 1.10,2013-02-11 12:05:00,
2013-02-11 04:20:00,38.2,37.0,30.35,West,271,0.0,0.0,96,0.00,,,0.00,weatherlink.com 1.10,2013-02-11 12:20:00,
2013-02-11 04:35:00,38.2,37.0,30.35,ENE,58,0.0,0.0,96,0.00,,,0.00,weatherlink.com 1.10,2013-02-11 12:35:00,
2013-02-11 04:50:00,38.2,37.0,30.36,ENE,58,0.0,0.0,96,0.00,,,0.00,weatherlink.com 1.10,2013-02-11 12:50:00,
2013-02-11 05:05:00,38.2,37.0,30.36,ENE,58,0.0,0.0,96,0.00,,,0.00,weatherlink.com 1.10,2013-02-11 13:05:00,
2013-02-11 05:20:00,38.1,37.0,30.36,ENE,58,0.0,0.0,97,0.00,,,0.00,weatherlink.com 1.10,2013-02-11 13:20:00,
2013-02-11 05:35:00,38.1,37.0,30.36,ENE,58,0.0,0.0,97,0.00,,,0.00,weatherlink.com 1.10,2013-02-11 13:35:00,
2013-02-11 05:50:00,38.0,37.0,30.35,ENE,58,0.0,0.0,97,0.00,,,0.00,weatherlink.com 1.10,2013-02-11 13:50:00,
2013-02-11 06:06:00,37.9,37.0,30.36,ENE,58,0.0,0.0,97,0.00,,,0.00,weatherlink.com 1.10,2013-02-11 14:06:00,
2013-02-11 06:20:00,37.9,37.0,30.36,ENE,57,0.0,0.0,97,0.00,,,0.00,weatherlink.com 1.10,2013-02-11 14:20:00,
2013-02-11 06:35:00,37.9,37.0,30.36,ENE,57,0.0,0.0,97,0.00,,,0.00,weatherlink.com 1.10,2013-02-11 14:35:00,
2013-02-11 06:50:00,37.8,37.0,30.36,ENE,57,0.0,0.0,97,0.00,,,0.00,weatherlink.com 1.10,2013-02-11 14:50:00,
2013-02-11 07:06:00,37.7,37.0,30.36,ENE,57,0.0,0.0,97,0.00,,,0.00,weatherlink.com 1.10,2013-02-11 15:06:00,
2013-02-11 07:20:00,37.6,37.0,30.36,ENE,57,0.0,0.0,97,0.00,,,0.00,weatherlink.com 1.10,2013-02-11 15:20:00,
2013-02-11 07:35:00,37.6,37.0,30.36,ENE,57,0.0,0.0,98,0.00,,,0.00,weatherlink.com 1.10,2013-02-11 15:35:00,
2013-02-11 07:51:00,37.7,37.0,30.36,ENE,57,0.0,0.0,98,0.00,,,0.00,weatherlink.com 1.10,2013-02-11 15:51:00,
2013-02-11 08:06:00,37.9,37.0,30.37,ENE,57,0.0,0.0,98,0.00,,,0.00,weatherlink.com 1.10,2013-02-11 16:06:00,
2013-02-11 08:20:00,38.3,38.0,30.37,ENE,57,0.0,0.0,98,0.00,,,0.00,weatherlink.com 1.10,2013-02-11 16:20:00,
2013-02-11 08:36:00,38.9,38.0,30.37,ENE,57,0.0,0.0,98,0.00,,,0.00,weatherlink.com 1.10,2013-02-11 16:36:00,
2013-02-11 08:50:00,39.5,39.0,30.37,ENE,57,0.0,0.0,97,0.00,,,0.00,weatherlink.com 1.10,2013-02-11 16:50:00,
2013-02-11 09:05:00,40.1,39.0,30.38,NE,54,0.0,0.0,95,0.00,,,0.00,weatherlink.com 1.10,2013-02-11 17:05:00,
2013-02-11 09:21:00,40.4,39.0,30.38,SW,236,0.0,0.0,94,0.00,,,0.00,weatherlink.com 1.10,2013-02-11 17:21:00,
2013-02-11 09:36:00,40.9,39.0,30.38,SW,219,0.0,0.0,94,0.00,,,0.00,weatherlink.com 1.10,2013-02-11 17:36:00,
2013-02-11 09:51:00,41.3,39.0,30.38,SSW,212,0.0,0.0,92,0.00,,,0.00,weatherlink.com 1.10,2013-02-11 17:51:00,
2013-02-11 10:06:00,41.9,40.0,30.38,SW,236,0.0,0.0,92,0.00,,,0.00,weatherlink.com 1.10,2013-02-11 18:06:00,
2013-02-11 10:21:00,42.2,40.0,30.38,SSW,207,2.0,3.0,91,0.00,,,0.00,weatherlink.com 1.10,2013-02-11 18:21:00,
2013-02-11 10:36:00,42.1,40.0,30.38,SW,219,0.0,0.0,93,0.00,,,0.00,weatherlink.com 1.10,2013-02-11 18:36:00,
2013-02-11 10:51:00,42.1,41.0,30.39,WSW,257,0.0,0.0,94,0.00,,,0.00,weatherlink.com 1.10,2013-02-11 18:51:00,
2013-02-11 11:06:00,41.7,40.0,30.39,SSE,155,0.0,0.0,95,0.00,,,0.00,weatherlink.com 1.10,2013-02-11 19:06:00,
2013-02-11 11:21:00,42.0,41.0,30.38,SW,221,0.0,0.0,95,0.00,,,0.00,weatherlink.com 1.10,2013-02-11 19:21:00,
2013-02-11 11:36:00,42.2,41.0,30.39,SW,217,0.0,0.0,95,0.00,,,0.00,weatherlink.com 1.10,2013-02-11 19:36:00,
2013-02-11 11:51:00,42.2,41.0,30.38,West,260,0.0,0.0,95,0.00,,,0.00,weatherlink.com 1.10,2013-02-11 19:51:00,
2013-02-11 12:06:00,42.6,42.0,30.38,West,260,0.0,0.0,96,0.01,,,0.01,weatherlink.com 1.10,2013-02-11 20:06:00,
2013-02-11 12:21:00,42.9,42.0,30.38,SSE,161,0.0,0.0,96,0.01,,,0.01,weatherlink.com 1.10,2013-02-11 20:21:00,
2013-02-11 12:36:00,43.1,42.0,30.37,SW,221,0.0,1.0,96,0.01,,,0.01,weatherlink.com 1.10,2013-02-11 20:36:00,
2013-02-11 12:51:00,43.2,42.0,30.37,NNW,348,0.0,0.0,96,0.01,,,0.01,weatherlink.com 1.10,2013-02-11 20:51:00,
2013-02-11 13:06:00,43.3,42.0,30.37,SSW,210,0.0,0.0,96,0.00,,,0.01,weatherlink.com 1.10,2013-02-11 21:06:00,
2013-02-11 13:21:00,43.3,42.0,30.37,ENE,77,0.0,0.0,96,0.00,,,0.01,weatherlink.com 1.10,2013-02-11 21:21:00,
2013-02-11 13:36:00,43.6,43.0,30.36,ENE,71,0.0,0.0,96,0.01,,,0.02,weatherlink.com 1.10,2013-02-11 21:36:00,
2013-02-11 13:51:00,44.1,43.0,30.36,North,8,0.0,0.0,97,0.01,,,0.02,weatherlink.com 1.10,2013-02-11 21:51:00,
2013-02-11 14:06:00,44.2,43.0,30.36,NNE,20,0.0,0.0,95,0.01,,,0.02,weatherlink.com 1.10,2013-02-11 22:06:00,
2013-02-11 14:21:00,44.1,43.0,30.36,NNW,333,0.0,0.0,96,0.01,,,0.02,weatherlink.com 1.10,2013-02-11 22:21:00,
2013-02-11 14:36:00,44.2,43.0,30.35,East,79,0.0,0.0,96,0.00,,,0.02,weatherlink.com 1.10,2013-02-11 22:36:00,
2013-02-11 14:51:00,44.2,43.0,30.35,ENE,78,0.0,0.0,96,0.00,,,0.02,weatherlink.com 1.10,2013-02-11 22:51:00,
2013-02-11 15:06:00,44.5,44.0,30.34,NE,42,0.0,0.0,96,0.00,,,0.02,weatherlink.com 1.10,2013-02-11 23:06:00,
2013-02-11 15:21:00,44.5,44.0,30.34,NE,45,0.0,0.0,96,0.00,,,0.02,weatherlink.com 1.10,2013-02-11 23:21:00,
2013-02-11 15:36:00,44.9,44.0,30.35,NE,44,0.0,0.0,96,0.00,,,0.02,weatherlink.com 1.10,2013-02-11 23:36:00,
2013-02-11 15:51:00,45.0,44.0,30.35,ESE,120,0.0,0.0,95,0.00,,,0.02,weatherlink.com 1.10,2013-02-11 23:51:00,
2013-02-11 16:21:00,44.5,44.0,30.35,SW,215,0.0,1.0,96,0.00,,,0.02,weatherlink.com 1.10,2013-02-12 00:21:00,
2013-02-11 16:36:00,44.2,43.0,30.35,SW,234,0.0,0.0,96,0.01,,,0.03,weatherlink.com 1.10,2013-02-12 00:36:00,
2013-02-11 16:51:00,43.7,43.0,30.35,SW,236,0.0,0.0,96,0.01,,,0.03,weatherlink.com 1.10,2013-02-12 00:51:00,
2013-02-11 17:06:00,43.2,42.0,30.35,West,272,0.0,0.0,96,0.01,,,0.03,weatherlink.com 1.10,2013-02-12 01:06:00,
2013-02-11 17:21:00,42.9,42.0,30.35,NNE,20,0.0,0.0,97,0.01,,,0.03,weatherlink.com 1.10,2013-02-12 01:21:00,
2013-02-11 17:36:00,42.6,42.0,30.35,NNW,338,0.0,0.0,97,0.00,,,0.03,weatherlink.com 1.10,2013-02-12 01:36:00,
2013-02-11 17:51:00,42.4,42.0,30.36,WSW,242,0.0,0.0,97,0.00,,,0.03,weatherlink.com 1.10,2013-02-12 01:51:00,
2013-02-11 18:07:00,42.2,41.0,30.36,WSW,243,0.0,0.0,97,0.00,,,0.03,weatherlink.com 1.10,2013-02-12 02:07:00,
2013-02-11 18:22:00,42.2,41.0,30.36,WSW,243,0.0,0.0,97,0.00,,,0.03,weatherlink.com 1.10,2013-02-12 02:22:00,
2013-02-11 18:36:00,42.0,42.0,30.36,WSW,243,0.0,0.0,98,0.01,,,0.04,weatherlink.com 1.10,2013-02-12 02:36:00,
2013-02-11 18:51:00,41.7,41.0,30.36,WSW,243,0.0,0.0,98,0.01,,,0.04,weatherlink.com 1.10,2013-02-12 02:51:00,
2013-02-11 19:06:00,41.3,41.0,30.36,WSW,243,0.0,0.0,98,0.01,,,0.04,weatherlink.com 1.10,2013-02-12 03:06:00,
2013-02-11 19:21:00,41.1,41.0,30.36,WSW,243,0.0,0.0,98,0.01,,,0.04,weatherlink.com 1.10,2013-02-12 03:21:00,
2013-02-11 19:36:00,40.7,40.0,30.36,WSW,243,0.0,0.0,98,0.00,,,0.04,weatherlink.com 1.10,2013-02-12 03:36:00,
2013-02-11 19:51:00,40.5,40.0,30.36,WSW,243,0.0,0.0,98,0.00,,,0.04,weatherlink.com 1.10,2013-02-12 03:51:00,
2013-02-11 20:06:00,40.5,40.0,30.36,WSW,243,0.0,0.0,98,0.00,,,0.04,weatherlink.com 1.10,2013-02-12 04:06:00,
2013-02-11 20:21:00,40.6,40.0,30.36,WSW,243,0.0,0.0,99,0.00,,,0.04,weatherlink.com 1.10,2013-02-12 04:21:00,
2013-02-11 20:36:00,40.7,41.0,30.36,WSW,243,0.0,0.0,99,0.00,,,0.04,weatherlink.com 1.10,2013-02-12 04:36:00,
2013-02-11 20:52:00,40.9,41.0,30.36,WSW,243,0.0,0.0,99,0.00,,,0.04,weatherlink.com 1.10,2013-02-12 04:52:00,
2013-02-11 21:07:00,41.0,41.0,30.36,WSW,243,0.0,0.0,99,0.00,,,0.04,weatherlink.com 1.10,2013-02-12 05:07:00,
2013-02-11 21:21:00,41.2,41.0,30.36,WSW,243,0.0,0.0,99,0.00,,,0.04,weatherlink.com 1.10,2013-02-12 05:21:00,
2013-02-11 21:36:00,41.2,41.0,30.36,SW,216,0.0,0.0,99,0.00,,,0.04,weatherlink.com 1.10,2013-02-12 05:36:00,
2013-02-11 21:51:00,41.3,41.0,30.36,SW,217,0.0,0.0,99,0.00,,,0.04,weatherlink.com 1.10,2013-02-12 05:51:00,
2013-02-11 22:06:00,41.2,41.0,30.36,SW,230,0.0,0.0,99,0.00,,,0.04,weatherlink.com 1.10,2013-02-12 06:06:00,
2013-02-11 22:21:00,41.2,41.0,30.36,SW,230,0.0,0.0,99,0.00,,,0.04,weatherlink.com 1.10,2013-02-12 06:21:00,
2013-02-11 22:36:00,41.2,41.0,30.37,SW,232,0.0,0.0,99,0.00,,,0.04,weatherlink.com 1.10,2013-02-12 06:36:00,
2013-02-11 22:51:00,41.2,41.0,30.37,SW,232,0.0,0.0,99,0.00,,,0.04,weatherlink.com 1.10,2013-02-12 06:51:00,
2013-02-11 23:06:00,41.2,41.0,30.37,SW,232,0.0,0.0,99,0.00,,,0.04,weatherlink.com 1.10,2013-02-12 07:06:00,
2013-02-11 23:22:00,41.2,41.0,30.38,SW,232,0.0,0.0,99,0.00,,,0.04,weatherlink.com 1.10,2013-02-12 07:22:00,
2013-02-11 23:36:00,41.2,41.0,30.38,SW,232,0.0,0.0,99,0.00,,,0.04,weatherlink.com 1.10,2013-02-12 07:36:00,
2013-02-11 23:52:00,41.3,41.0,30.38,SW,232,0.0,0.0,99,0.00,,,0.04,weatherlink.com 1.10,2013-02-12 07:52:00,